{"data":{"norad_id":67392,"epoch":"2026-09-20T22:41:49.731936Z","epoch_age_seconds":61851,"freshness":"FRESH","line1":"1 67392U 26004AF  26263.94571449  .00002748  00000+0  13149-3 0  9992","line2":"2 67392  97.4508 261.5186 0005766  18.6380 341.5065 15.19803417 38308","mean_motion":15.19803417,"eccentricity":0.0005766,"inclination_deg":97.4508,"raan_deg":261.5186,"arg_perigee_deg":18.638,"mean_anomaly_deg":341.5065,"bstar":0.00013149,"rev_number":3830,"period_min":94.74909609313,"perigee_km":502.46457473095,"apogee_km":510.40386226012,"semimajor_km":6884.5712184955,"source":"CELESTRAK","updated_at":"2026-09-21T09:00:16.599226Z"}}